Starlink 33825

operational
NORAD ID: 63505 Int'l Des: 2025-071 Owner: SPXS Country: US Constellation: starlink
LEOCIRCULAR

Über Starlink 33825

Beschreibung wird geladen...

Live-Position

3D-Globus wird geladen...

Nächste Überflüge

Höhenverlauf

Altitude vs Time

uPlot chart will show altitude changes over time

Zweizeiliger Elementsatz

1 63505U 25071N 25303.64966729 .00029878 00000-0 10162-2 0 9992
2 63505 53.1591 23.6975 0001037 97.4602 262.6517 15.30220320 32862
Epoch: 30. Okt. 2025 • Age: 25 hours

Aktueller Status

Höhe 487.6 km
Geschwindigkeit 7.62 km/s
Subsatellitenpunkt -37.20°S, 57.33°E
Startdatum 7. Apr. 2025
Alter 0.5 years
Typ internet

Technische Details

Klassifizierung Payload
Masse 575.00 kg
Trockenmasse 530.00 kg
Gesamtmasse 575.00 kg
Länge 0.30 m
Durchmesser 4.10 m
Spannweite 29.00 m
Form Box + pan
Hersteller SPXS
Bus-Typ Starlink V2MO
Phasenstatus In Orbit
Besitzer/Staat SPXS/US

Große Konstellationen

Loading constellations...